星链-33653 (STARLINK-33653)

导读

STARLINK-33653是美国SpaceX星链星座的卫星,于2025年3月26日发射升空,属于星链低轨互联网星座组网卫星,这类卫星旨在为全球提供高速低延迟宽带网络服务,覆盖偏远地区并补充现有通信网络,星链计划持续通过批量发射完善星座布局,该卫星是其规模化组网进程中新的组成单元。

基本信息
目录编号:
63380
目录名称:
STARLINK-33653
国际标识:
2025-063T
轨道中心:
EARTH
卫星名称:
星链-33653
卫星全名:
星链-33653 (STARLINK-33653)
卫星状态:
在轨 (已飞行527 天)
发射日期:
2025-03-26 UTC
国别 :
美国 (US)
星等 :
--
轨道信息
数据来源 国际轨道数据
星历时间: 2026-09-04T03:50:08+0800
16小时前
查看轨道信息
半长轴: 6848.811km
偏心率: 0.0001223
轨道倾角: 53.159°
近地点辐角 75.487°
升交点赤经 304.281°
平近点角 284.627°
近地点: 469.836km
远地点: 471.512km
周期: 94.012分钟
每日圈数: 15.317224
详细信息
固有亮度:
5
最大亮度:
2.5
卫星平台:
Starlink V1.0
覆盖范围:
全球
运营商:
太空探索技术公司
运营商所在国:
美国
制造商(研发单位):
太空探索技术公司
制造商所在国:
美国
使用方式:
暂无
卫星简介
Starlink 计划是 SpaceX 推出的全球卫星互联网项目,通过发射低轨道卫星,为全球尤其是偏远地区提供高速、低延迟的互联网服务。自 2019 年起,Starlink 已部署数千颗卫星,旨在缩小全球数字鸿沟,推动互联网普及。该项目还为军事、航空等行业提供通信支持,带来广泛经济效益。
2D轨道图
3D轨道图
轨道高度分析图
轨道倾角分析图
轨道综合分析图
查看轨道综合分析图
交会数据列表
事件ID 空间交会对象 最接近时刻(TCA) 交会距离 交会风险概率(CRP) 交会风险指数(CRI) 操作
CDM_260906-205505-174706-338021
2026-09-06T
20:55:59+0000
0.539 km
远距离
1.134187E-4 高风险 0.76
CDM_260905-132306-338006-821921
2026-09-05T
13:23:13+0000
2.668 km
极远距离
1.570212E-6 低风险 0.39
CDM_260905-064906-338006-913621
2026-09-05T
06:49:51+0000
2.801 km
极远距离
1.430818E-6 低风险 0.38
CDM_260904-205605-365806-338021
2026-09-04T
20:56:15+0000
2.864 km
极远距离
1.417338E-6 低风险 0.38
CDM_260906-124806-338006-943621
2026-09-06T
12:48:53+0000
2.890 km
极远距离
1.400856E-6 低风险 0.38
CDM_260906-192205-174706-338021
2026-09-06T
19:22:01+0000
2.742 km
极远距离
1.021288E-6 低风险 0.35
CDM_260906-110506-338006-885421
2026-09-06T
11:05:24+0000
2.804 km
极远距离
9.292528E-7 极低风险 0.34
CDM_260905-050204-835906-338022
2026-09-05T
05:02:11+0000
2.660 km
极远距离
9.085236E-7 极低风险 0.34